Aberdeen, United Kingdom

12:38 PM GMT on January 18, 2017 (GMT +0000)
Dyce

Weather History for EGPD - June, 2013

Change the Weather History Date:

Saturday, June 1, 2013

  Actual Average Record
Temperature  
Mean Temperature 52 °F -  
Max Temperature 57 °F 61 °F 69 °F (2014)
Min Temperature 46 °F 46 °F 37 °F (2015)
Degree Days  
Heating Degree Days 14    
Growing Degree Days 2 (Base 50)    
Moisture  
Dew Point 43 °F    
Average Humidity 75    
Maximum Humidity 88    
Minimum Humidity 47    
Precipitation  
Precipitation 0.08 in 0.07 in - ()
Sea Level Pressure  
Sea Level Pressure 30.18 in    
Wind  
Wind Speed 7 mph ()    
Max Wind Speed 13 mph    
Max Gust Speed -    
Visibility 7.0 miles    
Events Rain    
Averages and records for this station are not official NWS values.
T = Trace of Precipitation, MM = Missing Value Source: Averaged Metar Reports

Daily Weather History Graph

Daily Weather History Graph

Search for Another Location

Airport or City:

Trip Planner

Search our weather history database for the weather conditions in past years. The results will help you decide how hot, cold, wet, or windy it might be!

Date:

Astronomy

Jun. 01, 2013 Rise Set
Actual Time 4:22 AM BST 9:52 PM BST
Civil Twilight 3:19 AM BST 10:55 PM BST
Nautical Twilight 1:39 AM BST 12:34 AM BST
Astronomical Twilight Sun does not rise Sun does not rise
Moon 1:36 AM BST (6/1) 1:46 PM BST (6/1)
Length of Visible Light 19h 36m
Length of Day
17h 30m
Last Quarter, 43% of the Moon is Illuminated
Jun 1
Last Quarter
Jun 8
New
Jun 16
First Quarter
Jun 23
Full
Jun 30
Last Quarter

Hourly Weather History & Observations

Time (BST) Temp. Windchill Dew Point Humidity Pressure Visibility Wind Dir Wind Speed Gust Speed Precip Events Conditions
12:20 AM 48.2 °F - 44.6 °F 87% 30.15 in 6.2 mi NW 8.1 mph - N/A   Mostly Cloudy
12:50 AM 49 °F - 44 °F 77% 30.16 in 22 mi NW 8.1 mph - -   Partly Cloudy
12:50 AM 48.2 °F - 44.6 °F 87% 30.15 in 6.2 mi NW 8.1 mph - N/A   Scattered Clouds
1:20 AM 48.2 °F - 44.6 °F 87% 30.15 in 6.2 mi NW 8.1 mph - N/A   Scattered Clouds
1:50 AM 48.2 °F - 44.6 °F 87% 30.15 in 6.2 mi NW 8.1 mph - N/A   Mostly Cloudy
2:20 AM 48.2 °F - 42.8 °F 82% 30.15 in 6.2 mi NW 6.9 mph - N/A   Scattered Clouds
2:50 AM 48.2 °F - 44.6 °F 87% 30.15 in 6.2 mi NW 10.4 mph - N/A   Mostly Cloudy
3:20 AM 48.2 °F - 42.8 °F 82% 30.15 in 6.2 mi NW 5.8 mph - N/A   Mostly Cloudy
3:50 AM 48 °F - 43 °F 77% 30.17 in 22 mi WNW 6.9 mph - - Rain Rain
3:50 AM 48.2 °F - 44.6 °F 87% 30.15 in 6.2 mi WNW 6.9 mph - N/A   Mostly Cloudy
4:20 AM 46.4 °F 43.5 °F 42.8 °F 87% 30.15 in 6.2 mi WNW 5.8 mph - N/A   Scattered Clouds
4:50 AM 46.4 °F 43.5 °F 41.0 °F 81% 30.15 in 6.2 mi WNW 5.8 mph - N/A   Partly Cloudy
5:20 AM 46.4 °F 44.3 °F 41.0 °F 81% 30.15 in 6.2 mi NW 4.6 mph - N/A   Partly Cloudy
5:50 AM 46.4 °F 43.5 °F 42.8 °F 87% 30.15 in 6.2 mi WNW 5.8 mph - N/A   Scattered Clouds
6:20 AM 48.2 °F - 41.0 °F 76% 30.18 in - WNW 5.8 mph - N/A   Clear
6:50 AM 49 °F - 40 °F 61% 30.18 in 22 mi NW 11.5 mph - -  
6:50 AM 48.2 °F - 41.0 °F 76% 30.18 in - WNW 9.2 mph - N/A   Clear
7:20 AM 48.2 °F - 41.0 °F 76% 30.18 in - NW 9.2 mph - N/A   Clear
7:50 AM 50.0 °F - 41.0 °F 71% 30.18 in - NW 8.1 mph - N/A   Clear
8:20 AM 50.0 °F - 41.0 °F 71% 30.18 in 6.2 mi NW 10.4 mph - N/A   Partly Cloudy
8:50 AM 51.8 °F - 41.0 °F 67% 30.18 in 6.2 mi WNW 8.1 mph - N/A   Partly Cloudy
9:20 AM 51.8 °F - 41.0 °F 67% 30.18 in 6.2 mi NW 5.8 mph - N/A   Partly Cloudy
9:50 AM 53 °F - 38 °F 47% 30.19 in 19 mi NW 4.6 mph - -   Scattered Clouds
9:50 AM 53.6 °F - 41.0 °F 62% 30.18 in 6.2 mi NW 4.6 mph - N/A   Partly Cloudy
10:20 AM 53.6 °F - 41.0 °F 62% 30.18 in 6.2 mi NW 4.6 mph - N/A   Partly Cloudy
10:50 AM 53.6 °F - 41.0 °F 62% 30.18 in 6.2 mi North 6.9 mph - N/A   Scattered Clouds
11:20 AM 55.4 °F - 41.0 °F 58% 30.18 in 6.2 mi Variable 2.3 mph - N/A   Scattered Clouds
11:50 AM 55.4 °F - 41.0 °F 58% 30.18 in 6.2 mi Variable 2.3 mph - N/A   Mostly Cloudy
12:20 PM 53.6 °F - 42.8 °F 67% 30.18 in 6.2 mi ESE 10.4 mph - N/A   Scattered Clouds
12:50 PM 56 °F - 45 °F 56% 30.18 in 19 mi SSE 10.4 mph - -   Scattered Clouds
12:50 PM 57.2 °F - 44.6 °F 63% 30.18 in 6.2 mi SSE 10.4 mph - N/A   Scattered Clouds
1:20 PM 57.2 °F - 46.4 °F 67% 30.18 in 6.2 mi South 11.5 mph - N/A   Partly Cloudy
1:50 PM 53.6 °F - 42.8 °F 67% 30.18 in 6.2 mi South 11.5 mph - N/A   Partly Cloudy
2:20 PM 55.4 °F - 42.8 °F 63% 30.18 in 6.2 mi South 12.7 mph - N/A   Partly Cloudy
2:50 PM 55.4 °F - 42.8 °F 63% 30.15 in 6.2 mi South 10.4 mph - N/A   Partly Cloudy
3:20 PM 57.2 °F - 44.6 °F 63% 30.15 in 6.2 mi SSE 11.5 mph - N/A   Partly Cloudy
3:50 PM 54 °F - 44 °F 60% 30.17 in 19 mi South 11.5 mph - -   Mostly Cloudy
3:50 PM 55.4 °F - 44.6 °F 67% 30.15 in 6.2 mi South 10.4 mph - N/A   Scattered Clouds
4:20 PM 57.2 °F - 46.4 °F 67% 30.15 in 6.2 mi South 10.4 mph - N/A   Scattered Clouds
4:50 PM 55.4 °F - 46.4 °F 72% 30.15 in 6.2 mi South 9.2 mph - N/A   Scattered Clouds
5:20 PM 53.6 °F - 46.4 °F 77% 30.15 in 6.2 mi South 6.9 mph - N/A Rain Light Rain
5:50 PM 53.6 °F - 46.4 °F 77% 30.15 in 6.2 mi South 10.4 mph - N/A Rain Light Rain
6:20 PM 51.8 °F - 46.4 °F 82% 30.18 in 5.6 mi SW 4.6 mph - N/A Rain Light Rain Showers
6:50 PM 52 °F - 49 °F 86% 30.19 in 7 mi North 9.2 mph - - Rain Light Rain
6:50 PM 51.8 °F - 48.2 °F 88% 30.18 in 5.0 mi NW 4.6 mph - N/A Rain Light Rain
7:20 PM 50.0 °F - 46.4 °F 87% 30.18 in 6.2 mi ENE 6.9 mph - N/A   Scattered Clouds
7:50 PM 50.0 °F - 46.4 °F 87% 30.21 in 6.2 mi NE 3.5 mph - N/A   Scattered Clouds
8:20 PM 50.0 °F - 46.4 °F 87% 30.21 in 6.2 mi North 2.3 mph - N/A   Scattered Clouds
8:50 PM 50.0 °F - 46.4 °F 87% 30.21 in 6.2 mi NNW 8.1 mph - N/A   Partly Cloudy
9:20 PM 50.0 °F - 44.6 °F 82% 30.21 in 6.2 mi WNW 8.1 mph - N/A   Partly Cloudy
9:50 PM 49 °F - 44 °F 76% 30.23 in 25 mi NNW 5.8 mph - -  
9:50 PM 48.2 °F - 42.8 °F 82% 30.21 in 6.2 mi NW 6.9 mph - N/A   Partly Cloudy
10:20 PM 48.2 °F - 42.8 °F 82% 30.21 in - WNW 6.9 mph - N/A   Clear
10:50 PM 48.2 °F - 42.8 °F 82% 30.24 in - WNW 8.1 mph - N/A   Clear
11:20 PM 46.4 °F 42.4 °F 42.8 °F 87% 30.24 in 6.2 mi WNW 8.1 mph - N/A   Unknown
11:50 PM 46.4 °F 44.3 °F 42.8 °F 87% 30.24 in - West 4.6 mph - N/A   Clear